EW9826 Weather Reports


Display with metric or nautical units.
time (UTC)temp
F
wind
direction
speed
MPH
gust
MPH
rain 1hr
in
rain 24hr
in
rain mn
in
humidity
%
barometer
mb
20210617074627 77 250 10.0 20.0 0.00 0.00 0.00 68 1009.3
20210617074124 77 240 6.0 16.0 0.00 0.00 0.00 69 1009.3
20210617073627 77 242 7.0 14.0 0.00 0.00 0.00 69 1009.1
20210617072624 77 263 10.0 16.0 0.00 0.00 0.00 67 1009.0
20210617072125 77 236 11.0 18.0 0.00 0.00 0.00 67 1009.1
20210617071626 78 243 10.0 18.0 0.00 0.00 0.00 66 1009.2
20210617071125 78 224 8.0 21.0 0.00 0.00 0.00 65 1009.2
20210617070124 78 237 9.0 20.0 0.00 0.00 0.00 63 1009.1
20210617065627 78 225 8.0 16.0 0.00 0.00 0.00 62 1009.1
20210617065124 78 224 7.0 16.0 0.00 0.00 0.00 63 1009.1
20210617064623 77 213 5.0 15.0 0.00 0.00 0.00 64 1008.9
20210617063128 76 275 2.0 6.0 0.00 0.00 0.00 69 1008.6
20210617062626 75 202 3.0 6.0 0.00 0.00 0.00 69 1008.6
20210617062125 75 170 3.0 8.0 0.00 0.00 0.00 69 1008.5
20210617061626 75 158 5.0 7.0 0.00 0.00 0.00 69 1008.1
20210617061124 75 161 3.0 9.0 0.00 0.00 0.00 69 1008.1
20210617060123 75 121 2.0 5.0 0.00 0.00 0.00 70 1008.1
20210617055626 75 160 3.0 6.0 0.00 0.00 0.00 70 1008.1
20210617055125 74 142 3.0 8.0 0.00 0.00 0.00 71 1008.1
20210617054125 74 149 3.0 8.0 0.00 0.00 0.00 71 1008.2
20210617053627 74 156 3.0 10.0 0.00 0.00 0.00 71 1008.3
20210617052624 73 154 5.0 10.0 0.00 0.00 0.00 71 1008.2
20210617052124 73 141 4.0 10.0 0.00 0.00 0.00 71 1008.1
20210617051624 73 144 3.0 8.0 0.00 0.00 0.00 71 1008.1
20210617051125 73 127 5.0 8.0 0.00 0.00 0.00 71 1008.1
20210617050124 72 141 3.0 9.0 0.00 0.00 0.00 72 1008.1
20210617045624 72 141 2.0 8.0 0.00 0.00 0.00 72 1008.0
20210617045124 72 139 2.0 6.0 0.00 0.00 0.00 73 1008.0
20210617044624 72 148 5.0 9.0 0.00 0.00 0.00 73 1008.1
20210617044127 72 130 3.0 9.0 0.00 0.00 0.00 74 1008.1
20210617043623 72 127 3.0 6.0 0.00 0.00 0.00 74 1008.1
20210617043128 72 127 4.0 8.0 0.00 0.00 0.00 74 1008.1
20210617042128 72 131 3.0 7.0 0.00 0.00 0.00 73 1008.3
20210617041623 72 168 2.0 8.0 0.00 0.00 0.00 73 1008.2
20210617035623 71 139 3.0 8.0 0.00 0.00 0.00 76 1008.2
20210617035124 70 143 2.0 3.0 0.00 0.00 0.00 77 1008.2
20210617034124 70 134 1.0 3.0 0.00 0.00 0.00 78 1008.4
20210617033623 70 134 0.0 2.0 0.00 0.00 0.00 78 1008.5
20210617033124 70 134 0.0 2.0 0.00 0.00 0.00 78 1008.4
20210617032627 70 135 1.0 3.0 0.00 0.00 0.00 78 1008.2
20210617032124 70 134 2.0 3.0 0.00 0.00 0.00 78 1008.1
20210617031624 70 108 1.0 3.0 0.00 0.00 0.00 78 1008.2
20210617031127 71 108 1.0 2.0 0.00 0.00 0.00 78 1008.3
20210617025626 71 108 1.0 3.0 0.00 0.00 0.00 77 1008.5
20210617025124 71 108 2.0 3.0 0.00 0.00 0.00 77 1008.5
20210617024623 71 116 2.0 3.0 0.00 0.00 0.00 77 1008.6
20210617024124 71 114 1.0 3.0 0.00 0.00 0.00 77 1008.6
20210617023626 71 114 2.0 3.0 0.00 0.00 0.00 77 1008.6
20210617023125 71 115 2.0 3.0 0.00 0.00 0.00 77 1008.6
20210617021623 71 92 1.0 6.0 0.00 0.00 0.00 77 1008.6
20210617021124 71 117 2.0 5.0 0.00 0.00 0.00 77 1008.6
20210617020124 71 109 3.0 5.0 0.00 0.00 0.00 76 1008.8
20210617015127 71 96 2.0 7.0 0.00 0.00 0.00 76 1009.0
20210617014624 71 98 2.0 6.0 0.00 0.00 0.00 76 1009.1
20210617014124 71 110 2.0 3.0 0.00 0.00 0.00 76 1009.1
20210617012623 71 90 3.0 6.0 0.00 0.00 0.00 77 1009.1
20210617011623 71 98 1.0 3.0 0.00 0.00 0.00 77 1009.2
20210617011127 71 98 1.0 3.0 0.00 0.00 0.00 77 1009.2
20210617005623 71 98 0.0 1.0 0.00 0.00 0.00 77 1009.3
20210617005124 71 98 1.0 2.0 0.00 0.00 0.00 78 1009.2
20210617004623 71 98 2.0 3.0 0.00 0.00 0.00 78 1009.2
20210617004124 71 98 1.0 3.0 0.00 0.00 0.00 77 1009.3
20210617003626 71 98 1.0 3.0 0.00 0.00 0.00 78 1009.5
20210617002623 71 99 1.0 3.0 0.00 0.00 0.00 77 1009.6
20210617001124 71 99 1.0 3.0 0.00 0.00 0.00 77 1009.6
20210616235623 71 99 2.0 6.0 0.00 0.00 0.00 76 1009.6
20210616235125 71 86 3.0 6.0 0.00 0.00 0.00 76 1009.7
20210616234127 71 96 2.0 3.0 0.00 0.00 0.00 76 1009.6
20210616233623 71 95 2.0 5.0 0.00 0.00 0.00 76 1009.7
20210616232623 72 106 3.0 6.0 0.00 0.00 0.00 76 1009.7
20210616231623 72 106 2.0 5.0 0.00 0.00 0.00 75 1009.7
20210616231123 72 97 2.0 7.0 0.00 0.00 0.00 75 1009.8
20210616230123 72 65 2.0 3.0 0.00 0.00 0.00 74 1010.0
20210616225622 72 63 1.0 3.0 0.00 0.00 0.00 74 1010.0
20210616225123 72 63 1.0 3.0 0.00 0.00 0.00 74 1010.1
20210616224624 72 63 1.0 3.0 0.00 0.00 0.00 74 1010.2
20210616224123 72 63 1.0 3.0 0.00 0.00 0.00 74 1010.3
20210616223124 72 63 1.0 2.0 0.00 0.00 0.00 73 1010.4
20210616222622 72 63 1.0 3.0 0.00 0.00 0.00 73 1010.6
20210616221625 73 63 1.0 3.0 0.00 0.00 0.00 71 1010.6
20210616221129 73 62 0.0 0.0 0.00 0.00 0.00 71 1010.6
20210616220126 73 62 0.0 0.0 0.00 0.00 0.00 70 1010.7
20210616215622 73 62 0.0 0.0 0.00 0.00 0.00 69 1010.7
20210616215123 73 62 0.0 0.0 0.00 0.00 0.00 69 1010.6
20210616214623 74 62 0.0 1.0 0.00 0.00 0.00 68 1010.7
20210616214124 74 62 1.0 3.0 0.00 0.00 0.00 67 1010.6
20210616213622 74 62 0.0 0.0 0.00 0.00 0.00 67 1010.6
20210616212124 74 62 1.0 3.0 0.00 0.00 0.00 65 1010.7
20210616211623 75 61 0.0 3.0 0.00 0.00 0.00 65 1010.7
20210616211123 75 59 1.0 3.0 0.00 0.00 0.00 64 1010.7
20210616210122 75 90 1.0 3.0 0.00 0.00 0.00 64 1010.7
20210616205622 76 88 1.0 3.0 0.00 0.00 0.00 63 1010.7
20210616205124 76 91 1.0 2.0 0.00 0.00 0.00 63 1010.7
20210616203123 76 91 1.0 3.0 0.00 0.00 0.00 61 1010.7
20210616202622 76 91 1.0 5.0 0.00 0.00 0.00 61 1010.7
20210616201123 77 82 1.0 5.0 0.00 0.00 0.00 61 1010.6
20210616200122 77 67 1.0 5.0 0.00 0.00 0.00 61 1010.6
20210616195127 77 58 2.0 5.0 0.00 0.00 0.00 61 1010.6
20210616194623 77 55 2.0 3.0 0.00 0.00 0.00 60 1010.6
20210616194123 78 55 0.0 3.0 0.00 0.00 0.00 60 1010.6
20210616193622 78 55 2.0 5.0 0.00 0.00 0.00 60 1010.6
20210616193123 78 52 2.0 5.0 0.00 0.00 0.00 59 1010.6
20210616192624 78 58 3.0 7.0 0.00 0.00 0.00 59 1010.6
20210616192123 78 66 2.0 7.0 0.00 0.00 0.00 58 1010.6
20210616191622 79 45 2.0 6.0 0.00 0.00 0.00 58 1010.6
20210616185625 80 51 2.0 3.0 0.00 0.00 0.00 57 1010.7
20210616185123 80 42 2.0 7.0 0.00 0.00 0.00 56 1010.7
20210616184123 81 47 1.0 3.0 0.00 0.00 0.00 54 1010.7
20210616183123 81 13 1.0 3.0 0.00 0.00 0.00 52 1010.8
20210616182622 81 5 1.0 3.0 0.00 0.00 0.00 53 1010.8
20210616181622 81 4 2.0 3.0 0.00 0.00 0.00 53 1010.8
20210616181123 81 4 2.0 5.0 0.00 0.00 0.00 53 1010.8
20210616180122 81 3 1.0 5.0 0.00 0.00 0.00 54 1011.0
20210616175622 81 349 2.0 5.0 0.00 0.00 0.00 53 1011.0
20210616174622 81 256 4.0 6.0 0.00 0.00 0.00 52 1011.1
20210616174123 81 338 3.0 7.0 0.00 0.00 0.00 52 1011.1
20210616173622 81 1 2.0 3.0 0.00 0.00 0.00 53 1011.2
20210616173123 82 348 4.0 6.0 0.00 0.00 0.00 53 1011.1
20210616172125 82 11 5.0 8.0 0.00 0.00 0.00 51 1011.2
20210616171123 82 7 3.0 7.0 0.00 0.00 0.00 51 1011.2
20210616170122 82 337 4.0 7.0 0.00 0.00 0.00 50 1011.1
20210616165626 82 329 4.0 8.0 0.00 0.00 0.00 50 1011.2
20210616164622 83 304 5.0 9.0 0.00 0.00 0.00 50 1011.2
20210616163623 83 318 4.0 8.0 0.00 0.00 0.00 50 1011.2
20210616162622 83 323 6.0 10.0 0.00 0.00 0.00 49 1011.2
20210616161622 84 333 3.0 8.0 0.00 0.00 0.00 50 1011.2
20210616161126 84 349 5.0 9.0 0.00 0.00 0.00 49 1011.2
20210616160122 84 355 5.0 10.0 0.00 0.00 0.00 50 1011.2
20210616155622 84 332 5.0 10.0 0.00 0.00 0.00 50 1011.2
20210616155123 84 352 5.0 10.0 0.00 0.00 0.00 50 1011.2
20210616154622 84 344 3.0 6.0 0.00 0.00 0.00 50 1011.2
20210616154123 83 20 4.0 8.0 0.00 0.00 0.00 50 1011.2
20210616153123 85 296 2.0 5.0 0.00 0.00 0.00 47 1011.5
20210616152626 84 174 1.0 3.0 0.00 0.00 0.00 50 1011.4
20210616152122 82 173 2.0 9.0 0.00 0.00 0.00 52 1011.5
20210616151622 82 110 3.0 7.0 0.00 0.00 0.00 52 1011.6
20210616151122 82 163 3.0 6.0 0.00 0.00 0.00 52 1011.7
20210616150122 82 248 2.0 5.0 0.00 0.00 0.00 52 1011.7
20210616145122 82 118 1.0 8.0 0.00 0.00 0.00 50 1011.7
20210616144622 82 235 2.0 7.0 0.00 0.00 0.00 50 1011.7
20210616144123 83 139 2.0 7.0 0.00 0.00 0.00 51 1011.7
20210616143622 82 180 1.0 6.0 0.00 0.00 0.00 51 1011.7
20210616143123 82 182 3.0 6.0 0.00 0.00 0.00 51 1011.7
20210616142122 82 132 4.0 9.0 0.00 0.00 0.00 50 1011.7
20210616141122 82 217 3.0 9.0 0.00 0.00 0.00 50 1011.8
20210616140124 83 214 2.0 5.0 0.00 0.00 0.00 50 1011.8
20210616135622 82 94 3.0 6.0 0.00 0.00 0.00 51 1011.9
20210616135125 82 166 5.0 10.0 0.00 0.00 0.00 52 1012.0
20210616134621 82 109 3.0 9.0 0.00 0.00 0.00 51 1012.0
20210616134122 82 169 3.0 3.0 0.00 0.00 0.00 52 1012.1
20210616133122 81 105 4.0 9.0 0.00 0.00 0.00 53 1012.2
20210616132123 82 116 4.0 9.0 0.00 0.00 0.00 52 1012.1
20210616131624 81 142 4.0 8.0 0.00 0.00 0.00 53 1012.2
20210616131123 80 162 7.0 12.0 0.00 0.00 0.00 53 1012.2
20210616125622 81 198 4.0 9.0 0.00 0.00 0.00 52 1012.2
20210616124623 80 97 6.0 12.0 0.00 0.00 0.00 53 1012.4
20210616123621 80 85 6.0 10.0 0.00 0.00 0.00 53 1012.6
20210616123124 80 109 5.0 9.0 0.00 0.00 0.00 53 1012.7
20210616122621 80 116 5.0 10.0 0.00 0.00 0.00 52 1012.7
20210616120121 79 164 5.0 9.0 0.00 0.00 0.00 53 1013.1
20210616115122 79 228 5.0 9.0 0.00 0.00 0.00 52 1013.0
20210616114122 80 117 5.0 12.0 0.00 0.00 0.00 53 1013.1
20210616113622 79 103 4.0 8.0 0.00 0.00 0.00 53 1013.1
20210616113122 79 122 2.0 8.0 0.00 0.00 0.00 52 1013.2
20210616112621 79 135 5.0 8.0 0.00 0.00 0.00 52 1013.2
20210616111621 78 129 4.0 9.0 0.00 0.00 0.00 53 1013.3
20210616111122 79 140 5.0 10.0 0.00 0.00 0.00 53 1013.5
20210616110121 78 145 5.0 10.0 0.00 0.00 0.00 54 1013.7
20210616105125 78 144 3.0 7.0 0.00 0.00 0.00 52 1013.7
20210616104626 78 148 5.0 10.0 0.00 0.00 0.00 52 1013.8
20210616104122 78 92 7.0 14.0 0.00 0.00 0.00 53 1013.7
20210616103621 78 127 6.0 9.0 0.00 0.00 0.00 52 1013.7
20210616103123 79 142 5.0 9.0 0.00 0.00 0.00 52 1013.7
20210616102622 79 127 3.0 12.0 0.00 0.00 0.00 52 1013.7
20210616102121 78 157 5.0 9.0 0.00 0.00 0.00 54 1013.7
20210616101623 77 166 5.0 9.0 0.00 0.00 0.00 53 1013.7
20210616101122 77 101 6.0 10.0 0.00 0.00 0.00 53 1013.7
20210616095625 78 104 5.0 12.0 0.00 0.00 0.00 54 1013.8
20210616095122 77 170 5.0 8.0 0.00 0.00 0.00 55 1013.8
20210616094620 76 161 5.0 9.0 0.00 0.00 0.00 56 1013.9
20210616094123 77 96 8.0 14.0 0.00 0.00 0.00 54 1013.8
20210616093621 76 115 5.0 9.0 0.00 0.00 0.00 55 1014.0
20210616093122 76 160 5.0 10.0 0.00 0.00 0.00 56 1014.1
20210616092624 76 109 6.0 14.0 0.00 0.00 0.00 55 1014.1
20210616092121 76 56 2.0 8.0 0.00 0.00 0.00 57 1014.1
20210616091621 76 104 7.0 12.0 0.00 0.00 0.00 57 1014.2
20210616091121 76 174 7.0 9.0 0.00 0.00 0.00 56 1014.3
20210616090121 76 120 6.0 13.0 0.00 0.00 0.00 57 1014.3
20210616085122 75 110 5.0 12.0 0.00 0.00 0.00 58 1014.3
20210616084620 75 110 4.0 12.0 0.00 0.00 0.00 59 1014.3
20210616083623 75 162 4.0 12.0 0.00 0.00 0.00 59 1014.3
20210616083122 75 153 4.0 10.0 0.00 0.00 0.00 58 1014.3
20210616082620 74 132 6.0 12.0 0.00 0.00 0.00 57 1014.3
20210616081622 74 169 7.0 12.0 0.00 0.00 0.00 58 1014.4
20210616081122 73 128 5.0 12.0 0.00 0.00 0.00 58 1014.4
20210616080121 73 157 6.0 15.0 0.00 0.00 0.00 59 1014.5
20210616075621 73 162 6.0 10.0 0.00 0.00 0.00 59 1014.5